Weather History for Dansville, NY

Change the Weather History Date:

Tuesday, January 8, 2013

  Actual Average Record
Temperature  
Mean Temperature 30 °F -  
Max Temperature 39 °F 32 °F 66 °F (2008)
Min Temperature 21 °F 16 °F -4 °F (1968)
Degree Days  
Heating Degree Days 35    
Moisture  
Dew Point 20 °F    
Average Humidity 68    
Maximum Humidity 82    
Minimum Humidity 47    
Precipitation  
Precipitation 0.00 in - - ()
Sea Level Pressure  
Sea Level Pressure 30.32 in    
Wind  
Wind Speed 6 mph (SSE)    
Max Wind Speed 9 mph    
Max Gust Speed -    
Visibility 10 miles    
Events      
Averages and records for this station are not official NWS values.
T = Trace of Precipitation, MM = Missing Value Source: NWS Daily Summary

Daily Weather History Graph

Daily Weather History Graph

Search for Another Location

Airport:

Trip Planner

Search our weather history database for the weather conditions in past years. The results will help you decide how hot, cold, wet, or windy it might be!

Date:

Astronomy

Jan. 08, 2013 Rise Set
Actual Time 7:40 AM EST 4:55 PM EST
Civil Twilight 7:08 AM EST 5:26 PM EST
Nautical Twilight 6:33 AM EST 6:02 PM EST
Astronomical Twilight 5:59 AM EST 6:36 PM EST
Moon 4:10 AM EST (1/8) 1:56 PM EST (1/8)
Length of Visible Light 10h 18m
Length of Day
9h 15m
Waning Crescent, 14% of the Moon is Illuminated
Jan 8
Waning Crescent
Jan 11
New
Jan 18
First Quarter
Jan 26
Full
Feb 3
Last Quarter

Hourly Weather History & Observations

Time (EST) Temp. Windchill Dew Point Humidity Pressure Visibility Wind Dir Wind Speed Gust Speed Precip Events Conditions
12:54 AM 30.0 °F 24.1 °F 19.9 °F 66% 30.26 in 10.0 mi SSE 5.8 mph - N/A   Clear
1:54 AM 27.0 °F 19.5 °F 19.0 °F 72% 30.25 in 10.0 mi SE 6.9 mph - N/A   Clear
2:54 AM 25.0 °F 17.1 °F 19.0 °F 78% 30.27 in 10.0 mi South 6.9 mph - N/A   Clear
3:54 AM 25.0 °F 16.3 °F 18.0 °F 75% 30.26 in 10.0 mi South 8.1 mph - N/A   Clear
4:54 AM 21.0 °F 13.4 °F 16.0 °F 81% 30.26 in 10.0 mi East 5.8 mph - N/A   Clear
5:54 AM 21.9 °F 11.7 °F 17.1 °F 82% 30.28 in 10.0 mi SE 9.2 mph - N/A   Clear
6:54 AM 21.0 °F 13.4 °F 16.0 °F 81% 30.30 in 9.0 mi SSE 5.8 mph - N/A   Clear
7:54 AM 21.0 °F 12.4 °F 16.0 °F 81% 30.32 in 8.0 mi South 6.9 mph - N/A   Clear
8:54 AM 24.1 °F 18.2 °F 18.0 °F 77% 30.33 in 9.0 mi SSE 4.6 mph - N/A   Clear
9:54 AM 28.0 °F 22.8 °F 19.0 °F 69% 30.34 in 10.0 mi SSE 4.6 mph - N/A   Clear
10:54 AM 30.9 °F 25.2 °F 19.9 °F 64% 30.34 in 9.0 mi SE 5.8 mph - N/A   Clear
11:54 AM 35.1 °F 29.3 °F 21.0 °F 57% 30.32 in 10.0 mi SE 6.9 mph - N/A   Clear
12:54 PM 37.9 °F 34.4 °F 19.9 °F 48% 30.31 in 10.0 mi SE 4.6 mph - N/A   Clear
1:54 PM 39.9 °F 35.1 °F 21.0 °F 47% 30.31 in 10.0 mi SE 6.9 mph - N/A   Clear
2:54 PM 39.9 °F 35.1 °F 21.0 °F 47% 30.32 in 10.0 mi SSE 6.9 mph - N/A   Clear
3:54 PM 39.0 °F 35.7 °F 21.9 °F 50% 30.33 in 10.0 mi SE 4.6 mph - N/A   Clear
4:54 PM 36.0 °F - 24.1 °F 62% 30.35 in 10.0 mi Calm Calm - N/A   Clear
5:54 PM 33.1 °F 30.0 °F 25.0 °F 72% 30.36 in 10.0 mi SSE 3.5 mph - N/A   Clear
6:54 PM 32.0 °F 27.5 °F 24.1 °F 73% 30.36 in 10.0 mi South 4.6 mph - N/A   Clear
7:54 PM 30.9 °F 25.2 °F 21.9 °F 69% 30.37 in 10.0 mi SE 5.8 mph - N/A   Clear
8:54 PM 30.0 °F 22.4 °F 21.9 °F 72% 30.37 in 10.0 mi SSE 8.1 mph - N/A   Clear
9:54 PM 28.0 °F 19.3 °F 21.0 °F 75% 30.37 in 10.0 mi SE 9.2 mph - N/A   Clear
10:54 PM 27.0 °F 19.5 °F 19.9 °F 75% 30.37 in 10.0 mi SE 6.9 mph - N/A   Clear